SL-24 DEB

Satellite information

Favourite Embed

Satellite Type and Status

DEBRISIN ORBIT

Key statistics

Satellite SL-24 DEB at a glance.

Uptime

5660

Days in orbit

Revolutions

≈ 14.8

Per day

Orbit

SSO

Sun Synchronous Orbit

Inclination

98.0

Latest

Satellite identification and parameters

Extended collection of information and parameters for SL-24 DEB.

Object identification

Identified? True

Debris? True

Object name: SL-24 DEB

International designator: 2010-028E

Object number (NORAD): 36602

Object ID (CCSDS): 36602

Country: COMMONWEALTH OF INDEPENDENT STATES (CIS)

Current information (Y/N): Y

RCS size: LARGE

Orbital parameters

Period: 97.46 minutes

Inclination: 97.9652 deg

SMA: 7015.265 km

Apoapsis: 647.626 km

Periapsis: 626.635 km

RAAN: 182.5617 deg

Eccentricy: 0.0014961

Argument of periapsis: 271.35 deg

Mean anomaly: 88.5997 deg

Mean motion: 14.77531024 rev/day

Mean motion (dot): 0.00007836 rev/day2

B* drag term: 0.0011024001 1/REarth

Two-line elements (TLE)

Creation date: Dec. 12, 2025, 10:14 a.m.

Reference frame: TEME

Reference center: EARTH

Epoch: Dec. 12, 2025, 2:28 a.m. UTC

TLE line 0: 0 SL-24 DEB

TLE line 1: 1 36602U 10028E 25346.10309567 .00007836 00000-0 11024-2 0 9993

TLE line 2: 2 36602 97.9652 182.5617 0014961 271.3500 88.5997 14.77531024826743

Live tracking on map

Real-time ground track for satellite SL-24 DEB.

In-orbit conjunctions

A list of the most updated potential collisions computed for object SL-24 DEB.

Target Orbit TCA Probability of collision Miss distance Type
EOLE 1 (CAS-A) LEO 2025-11-20 02:46:39 0.0005243093 541.0 (m) PAYLOAD
CZ-6A DEB LEO 2025-01-20 18:33:08 0.0007385624 516.0 (m) DEBRIS
CZ-6A DEB LEO 2024-11-24 21:05:47 0.0001204591 811.0 (m) DEBRIS

Associated space launch

SL-24 DEB was lifted into orbit during the mission ‘Dnepr 1 | Prisma-Mango, Prisma-Tango, Picard, BPA-1’, on board a Dnepr space rocket.

The launch took place on June 15, 2010, 2:42 p.m. from 370/13.

For more information about the launch, click the button.

Launch to space Dnepr 1 | Prisma-Mango, Prisma-Tango, Picard, BPA-1
Dnepr 1 | Prisma-Mango, Prisma-Tango, Picard, BPA-1

Agency: N/A

Status: Launch Successful

Launch date: June 15, 2010, 2:42 p.m. UTC

Rocket: Dnepr

Launch pad: 370/13

Location: Dombarovskiy, Russian Federation

...

Latest news about this satellite

There are no fresh news available about this satellite. Check back as we update our databases every day.


Newsletter sign-up

Weekly statistics, charts and insights to help you stay on top of the space industry.